Find Starlink 5597

NORAD ID: 55403 Int'l Des: 2023-014 Owner: SPXS Country: US Constellation: starlink operational
LEOCIRCULAR

現在のビュー

3D地球を読み込み中...

About Starlink 5597

Starlink 5597 (NORAD 55403) is a starlink constellation satellite (v1.5) launched Jan 31, 2023 by SPXS of US. It operates in LEO, CIRCULAR orbit with a mass of 305.00 kg.

次回通過

Passes for default location (London). Set your location on the main map for personalized predictions.

高度履歴

Loading altitude history...

軌道要素

1 55403U 23014N 26262.81381936 .00000210 00000-0 25439-4 0 9994
2 55403 69.9981 294.9887 0003524 274.5820 85.4937 14.98330869201134
Epoch: Sep 19, 2026 • Age: 19 hours

現在のステータス

高度 575.2 km
遠地点 / 近地点 N/A
速度 7.57 km/s
衛星直下点 -6.90°S, 70.07°E
打ち上げ日 Jan 31, 2023
運用期間 3.6 years
タイプ internet

技術仕様

分類 Payload
質量 305.00 kg
乾燥質量 290.00 kg
長さ 0.20 m
スパン 9.00 m
形状 ? Box + pan
製造者 SPXS
バスタイプ Starlink
フェーズステータス In Orbit
所有者/国 SPXS/US

Most Searched